Overview Statistics Trail Chart Weather Telemetry Raw packets
 

This is the latest recevied weather packets stored in our database for station/object DF7ER-12. If no packets are shown the sender has not sent any weather packets the latest 10 day(s).

<< 94 95 96 97 98 99 100 >>
Time Temp. Humidity Pressure Rain* Wind** Luminosity Snow
1787962304 21.11° C 84% 999.9 hPa - - - -
1787962004 21.11° C 85% 1000 hPa - - - -
1787961704 21.11° C 85% 1000 hPa - - - -
1787961404 21.11° C 85% 1000.1 hPa - - - -
1787961104 21.11° C 84% 1000.1 hPa - - - -
1787960804 21.11° C 84% 1000.1 hPa - - - -
1787960510 21.67° C 84% 1000.1 hPa - - - -
1787960204 21.67° C 84% 1000.1 hPa - - - -
1787959904 21.11° C 85% 1000 hPa - - - -
1787959604 21.11° C 84% 1000 hPa - - - -
1787959304 21.67° C 84% 999.9 hPa - - - -
1787959004 21.67° C 85% 999.8 hPa - - - -
1787958704 21.67° C 85% 999.7 hPa - - - -
1787958404 21.67° C 85% 999.6 hPa - - - -
1787958104 21.67° C 85% 999.5 hPa - - - -
1787957804 21.67° C 85% 999.5 hPa - - - -
1787957504 21.67° C 85% 999.3 hPa - - - -
1787957204 21.67° C 85% 999.5 hPa - - - -
1787956904 21.67° C 85% 999.3 hPa - - - -
1787956604 21.67° C 87% 999.5 hPa - - - -
1787956304 22.22° C 88% 999.6 hPa - - - -
1787956004 22.22° C 86% 999.5 hPa - - - -
1787955704 22.22° C 89% 999.3 hPa - - - -
1787955404 22.22° C 89% 999.3 hPa - - - -
1787955104 22.22° C 89% 999.2 hPa - - - -

* Rain since midnight (hover to see other rain measurements)
** Current wind speed in m/s (hover to see current wind gust speed)